Location: *
(50.6089°N, 2.2719°E)
Time: 14:44:51
(UTC+00:00)

STARLINK-77 - Pass Details

Date: 18 October 2019
Orbit: 549 x 551 km, 53.0° (Epoch: 20 November)

Event Time Altitude Azimuth Distance (km) Brightness Sun altitude
Rises 17:57:55 0° 255° (WSW) 2,713 9.0 -10.9°
Reaches altitude 10° 18:00:09 10° 256° (WSW) 1,822 7.7 -11.3°
Maximum altitude 18:04:17 79° 343° (NNW) 565 3.7 -12.0°
Enters shadow 18:07:21 18° 70° (ENE) 1,398 5.1 -12.4°
